Time,TemperatureF,DewpointF,PressureIn,WindDirection,WindDirectionDegrees,WindSpeedMPH,WindSpeedGustMPH,Humidity,HourlyPrecipIn,Conditions,Clouds,dailyrainin,SoftwareType,DateUTC
2013-02-25 00:00:00,39.9,1.0,30.12,West,275,4.0,6.0,19,0.00,,---,0.00,VWS V13.01,2013-02-25 08:00:00,
2013-02-25 00:30:00,39.3,0.5,30.11,West,273,0.0,7.0,19,0.00,,---,0.00,VWS V13.01,2013-02-25 08:30:00,
2013-02-25 01:00:00,34.6,-0.3,30.13,West,281,0.0,3.0,22,0.00,,---,0.00,VWS V13.01,2013-02-25 09:00:00,
2013-02-25 01:30:00,31.3,-1.3,30.13,West,281,0.0,3.0,24,0.00,,---,0.00,VWS V13.01,2013-02-25 09:30:00,
2013-02-25 02:00:00,27.6,-2.8,30.13,WNW,291,0.0,4.0,26,0.00,,---,0.00,VWS V13.01,2013-02-25 10:00:00,
2013-02-25 02:30:00,27.0,1.1,30.14,WNW,291,1.0,4.0,32,0.00,,---,0.00,VWS V13.01,2013-02-25 10:30:00,
2013-02-25 03:00:00,28.5,-0.4,30.12,WNW,291,0.0,3.0,28,0.00,,---,0.00,VWS V13.01,2013-02-25 11:00:00,
2013-02-25 03:30:00,27.6,-2.0,30.11,WNW,291,2.0,3.0,27,0.00,,---,0.00,VWS V13.01,2013-02-25 11:30:00,
2013-02-25 04:00:00,23.9,-3.0,30.12,North,357,0.0,4.0,30,0.00,,---,0.00,VWS V13.01,2013-02-25 12:00:00,
2013-02-25 04:30:00,24.3,-1.3,30.11,North,357,0.0,4.0,32,0.00,,---,0.00,VWS V13.01,2013-02-25 12:30:00,
2013-02-25 05:30:00,25.5,1.0,30.12,North,357,2.0,4.0,34,0.00,,---,0.00,VWS V13.01,2013-02-25 13:30:00,
2013-02-25 06:30:00,25.2,1.4,30.12,North,357,1.0,3.0,35,0.00,,---,0.00,VWS V13.01,2013-02-25 14:30:00,
2013-02-25 07:00:00,25.2,0.8,30.12,North,357,1.0,3.0,34,0.00,,---,0.00,VWS V13.01,2013-02-25 15:00:00,
2013-02-25 07:30:00,28.3,3.5,30.13,North,357,2.0,3.0,34,0.00,,---,0.00,VWS V13.01,2013-02-25 15:30:00,
2013-02-25 08:01:00,35.2,4.6,30.14,North,357,3.0,4.0,27,0.00,,---,0.00,VWS V13.01,2013-02-25 16:01:00,
2013-02-25 08:30:00,37.1,4.6,30.15,North,4,3.0,6.0,25,0.00,,---,0.00,VWS V13.01,2013-02-25 16:30:00,
2013-02-25 09:00:00,39.4,5.6,30.12,North,4,1.0,6.0,24,0.00,,---,0.00,VWS V13.01,2013-02-25 17:00:00,
2013-02-25 09:30:00,42.6,5.4,30.11,North,4,1.0,5.0,21,0.00,,---,0.00,VWS V13.01,2013-02-25 17:30:00,
2013-02-25 10:00:00,46.5,7.6,30.10,North,4,4.0,5.0,20,0.00,,---,0.00,VWS V13.01,2013-02-25 18:00:00,
2013-02-25 10:30:00,50.1,7.0,30.11,North,6,2.0,6.0,17,0.00,,---,0.00,VWS V13.01,2013-02-25 18:30:00,
2013-02-25 11:00:00,52.5,6.2,30.09,North,4,3.0,6.0,15,0.00,,---,0.00,VWS V13.01,2013-02-25 19:00:00,
2013-02-25 11:30:00,55.0,6.7,30.09,North,10,1.0,6.0,14,0.00,,---,0.00,VWS V13.01,2013-02-25 19:30:00,
2013-02-25 12:00:00,56.8,6.5,30.05,NE,37,4.0,7.0,13,0.00,,---,0.00,VWS V13.01,2013-02-25 20:00:00,
2013-02-25 12:30:00,57.2,6.8,30.03,NNE,21,4.0,8.0,13,0.00,,---,0.00,VWS V13.01,2013-02-25 20:30:00,
2013-02-25 13:00:00,59.2,8.4,30.03,South,189,7.0,10.0,13,0.00,,---,0.00,VWS V13.01,2013-02-25 21:00:00,
2013-02-25 13:30:00,60.9,9.8,30.01,ENE,71,1.0,8.0,13,0.00,,---,0.00,VWS V13.01,2013-02-25 21:30:00,
2013-02-25 14:00:00,63.1,11.5,30.01,NE,50,3.0,6.0,13,0.00,,---,0.00,VWS V13.01,2013-02-25 22:00:00,
2013-02-25 14:30:00,62.6,11.2,29.99,West,262,3.0,6.0,13,0.00,,---,0.00,VWS V13.01,2013-02-25 22:30:00,
2013-02-25 15:00:00,64.9,12.9,29.97,SE,143,1.0,8.0,13,0.00,,---,0.00,VWS V13.01,2013-02-25 23:00:00,
2013-02-25 15:30:00,65.7,13.5,29.96,SE,132,1.0,8.0,13,0.00,,---,0.00,VWS V13.01,2013-02-25 23:30:00,
2013-02-25 16:00:00,65.4,19.5,29.95,South,181,9.0,17.0,17,0.00,,---,0.00,VWS V13.01,2013-02-26 00:00:00,
2013-02-25 16:30:00,63.7,18.2,29.95,SSW,194,5.0,20.0,17,0.00,,---,0.00,VWS V13.01,2013-02-26 00:30:00,
2013-02-25 17:00:00,61.7,17.8,29.93,SSW,209,0.0,17.0,18,0.00,,---,0.00,VWS V13.01,2013-02-26 01:00:00,
2013-02-25 17:30:00,59.7,17.4,29.94,South,180,0.0,0.0,19,0.00,,---,0.00,VWS V13.01,2013-02-26 01:30:00,
2013-02-25 18:00:00,56.8,17.3,29.94,SW,229,0.0,0.0,21,0.00,,---,0.00,VWS V13.01,2013-02-26 02:00:00,
2013-02-25 18:30:00,54.6,16.5,29.96,SW,234,0.0,0.0,22,0.00,,---,0.00,VWS V13.01,2013-02-26 02:30:00,
2013-02-25 19:00:00,53.1,16.3,29.95,SW,236,4.0,14.0,23,0.00,,---,0.00,VWS V13.01,2013-02-26 03:00:00,
2013-02-25 19:30:00,51.3,18.5,29.96,SW,229,8.0,15.0,27,0.00,,---,0.00,VWS V13.01,2013-02-26 03:30:00,
2013-02-25 20:00:00,51.5,18.6,29.96,SSW,205,8.0,16.0,27,0.00,,---,0.00,VWS V13.01,2013-02-26 04:00:00,
2013-02-25 20:30:00,51.6,19.6,29.97,SSW,204,8.0,19.0,28,0.00,,---,0.00,VWS V13.01,2013-02-26 04:30:00,
2013-02-25 21:30:00,50.7,19.6,29.97,SSW,208,3.0,14.0,29,0.00,,---,0.00,VWS V13.01,2013-02-26 05:30:00,
2013-02-25 22:00:00,49.8,19.6,29.97,SSW,203,5.0,12.0,30,0.00,,---,0.00,VWS V13.01,2013-02-26 06:00:00,
2013-02-25 22:30:00,50.9,18.1,29.95,WSW,239,10.0,20.0,27,0.00,,---,0.00,VWS V13.01,2013-02-26 06:30:00,
2013-02-25 23:00:00,52.7,16.9,29.95,WSW,242,13.0,24.0,24,0.00,,---,0.00,VWS V13.01,2013-02-26 07:00:00,
2013-02-25 23:30:00,50.3,17.6,29.94,WSW,243,11.0,22.0,27,0.00,,---,0.00,VWS V13.01,2013-02-26 07:30:00,